Wetbulb
38.36 33.58 30.08 33.56 35.29 36.70 35.40 33.63 32.59 36.14 39.88 37.19 36.88 37.94 40.78 42.71 42.54 42.45 43.74 44.73 45.33 46.31 48.88 49.99 50.52 53.60 55.84 58.07 59.09 60.73 62.52 64.17 68.25 67.64 66.60 66.82 67.05 67.74 67.08 67.40 67.86 67.85 68.08 67.42
34.80 30.35 37.21 38.94 38.12 36.98 35.46 32.57 32.32 36.60 40.60 38.93 37.05 37.38 41.08 41.92 41.33 41.94 42.96 43.78 44.37 45.18 46.38 48.43 49.73 50.49 52.52 54.23 58.62 59.40 61.91 64.72 65.88 67.37 67.60 66.71 67.92 65.30 67.77 67.26 67.32 67.87 68.03 68.22
31.54 35.81 40.01 38.05 36.88 36.06 33.69 32.46 33.17 33.95 38.00 38.89 36.25 34.74 36.67 39.89 41.57 42.59 42.53 43.04 44.22 44.16 44.48 46.10 47.71 48.08 48.86 51.70 53.82 58.95 61.01 65.00 67.68 68.22 64.92 62.88 63.74 64.08 63.46 63.30 64.14 65.80 67.50 68.91
34.05 38.05 37.85 35.71 35.95 36.89 31.04 38.11 37.62 35.72 32.87 26.52 35.73 25.52 33.67 36.25 37.77 39.70 40.95 40.76 41.75 42.87 44.15 45.25 46.42 46.96 47.99 49.46 52.96 56.60 59.45 63.12 67.51 68.64 65.27 64.23 65.27 65.30 64.83 63.45 63.48 64.36 66.72 69.20
34.10 34.63 34.79 34.11 36.24 39.33 34.75 39.34 36.38 35.70 32.60 29.23 31.16 25.26 30.41 36.46 35.27 36.65 38.66 40.28 41.52 45.09 46.85 47.97 49.43 49.54 48.32 48.78 49.93 54.29 59.43 61.30 65.48 67.72 67.43 65.88 61.68 62.83 61.69 63.44 63.53 64.75 66.56 69.18
35.69 39.20 37.99 37.63 40.44 39.95 40.03 35.16 33.95 32.17 27.92 21.67 29.37 27.51 30.20 31.93 34.04 36.38 39.23 43.50 45.30 46.06 47.03 47.69 49.24 50.36 51.01 51.09 49.18 51.64 57.66 60.59 63.01 66.25 65.97 65.69 65.38 61.98 61.47 62.95 63.37 65.31 66.43 68.24
34.18 34.81 37.82 41.60 35.43 36.80 33.48 27.12 20.12 19.72 20.27 20.78 29.85 26.90 30.68 36.10 38.96 39.85 41.78 43.70 44.47 44.96 45.16 45.96 46.35 47.88 49.77 50.96 51.09 52.40 56.49 59.71 61.50 64.06 64.95 65.57 64.36 63.22 62.31 63.15 63.64 65.14 65.46 66.18
26.84 25.79 34.99 39.78 35.38 31.70 30.79 28.30 19.72 16.49 19.64 22.15 31.39 24.37 29.25 37.41 42.70 44.22 44.76 44.37 45.03 44.46 44.82 45.37 46.35 47.51 49.79 50.86 52.06 49.79 52.64 59.04 61.14 62.47 63.44 64.59 63.83 61.94 62.20 63.67 64.68 65.79 66.78 66.99
25.32 29.12 38.62 39.87 39.02 36.35 30.79 26.10 30.31 24.71 25.13 20.44 24.70 30.02 35.57 39.01 41.60 42.66 41.94 43.41 42.17 43.57 44.91 45.66 47.16 48.97 50.41 51.22 52.37 53.02 51.42 58.12 60.68 61.72 62.96 62.37 62.05 60.69 61.95 63.49 65.46 66.35 66.53 67.25
32.66 27.06 36.09 38.18 38.40 37.89 33.65 35.14 25.22 21.28 14.28 16.23 23.79 25.73 27.59 33.38 36.18 40.36 40.40 40.57 42.37 44.13 44.85 45.74 46.96 48.97 51.15 51.99 52.24 55.35 54.89 56.41 60.37 61.08 61.91 61.53 62.32 62.09 62.13 64.99 66.06 66.58 66.15 67.14
33.34 30.16 30.78 34.89 32.00 29.41 29.53 27.81 29.98 26.61 28.46 22.14 20.65 24.09 33.86 35.75 38.57 38.65 39.71 41.29 42.34 43.85 45.13 46.19 47.70 49.37 50.61 51.90 51.77 55.34 53.82 57.46 59.04 57.36 59.38 60.46 62.04 63.13 64.24 65.44 66.42 66.78 66.74 67.25
35.11 30.62 27.24 30.32 36.83 37.42 34.23 30.80 29.98 21.82 23.05 25.91 24.87 25.77 38.21 38.42 39.28 40.05 39.92 42.23 43.67 43.97 45.81 47.14 48.78 49.76 51.19 51.70 51.99 55.90 53.10 56.62 57.63 58.60 60.72 62.28 63.01 64.92 65.30 65.87 66.56 66.44 66.60 67.43
35.12 29.76 25.95 26.24 30.07 34.12 32.40 33.44 32.23 30.81 30.65 25.90 24.22 26.26 38.37 39.54 40.38 41.60 40.46 42.80 43.90 44.27 46.17 48.56 49.33 50.46 50.67 52.57 52.33 57.87 55.93 56.20 57.95 60.40 61.36 63.33 64.69 65.77 66.06 66.44 66.33 66.58 66.67 66.81
40.70 32.54 30.70 25.18 28.08 29.69 30.25 33.73 33.80 30.54 28.14 26.68 28.11 30.29 35.34 37.57 38.87 41.19 41.98 44.54 46.47 45.20 49.57 49.70 50.07 50.14 50.98 52.82 59.59 61.55 58.89 61.37 62.71 63.70 63.85 64.50 65.84 66.51 66.51 66.73 66.71 66.85 66.94 66.81
35.11 28.07 31.26 32.97 34.76 34.90 33.83 33.66 34.58 32.90 32.18 27.47 30.26 30.87 35.09 37.40 38.89 41.51 44.67 45.84 46.71 45.32 49.08 48.59 47.77 48.68 49.98 51.46 57.98 59.98 60.79 63.72 65.11 65.47 65.31 65.30 65.88 65.63 66.10 66.53 66.75 66.22 66.36 65.96
34.15 29.44 34.46 30.56 34.23 34.39 32.77 34.70 34.93 35.12 34.67 33.47 33.41 32.34 38.21 41.01 41.98 42.94 44.20 44.79 45.57 46.71 47.44 46.97 47.26 48.20 49.19 51.66 57.30 58.91 61.58 65.38 65.95 65.77 64.98 65.18 65.06 65.22 64.93 64.75 64.93 64.83 64.59 63.94
30.75 29.21 29.10 26.48 32.92 31.92 27.79 32.61 33.66 33.83 35.19 35.01 30.50 35.02 39.37 39.45 40.77 40.99 41.71 42.88 45.01 45.51 45.78 45.56 46.69 47.97 48.53 51.80 58.14 59.00 59.72 65.42 65.70 65.21 65.24 64.82 64.80 64.48 64.04 64.32 64.16 63.35 62.08 61.38
31.53 32.40 34.49 29.01 27.65 20.59 31.03 39.32 39.70 36.79 37.26 37.22 36.07 38.00 40.34 40.26 41.61 42.41 43.67 44.19 43.31 44.61 44.90 45.49 47.01 47.45 48.81 55.38 58.01 59.59 61.07 63.87 64.42 64.50 64.36 64.32 64.27 63.44 63.53 62.75 61.62 59.64 59.83 59.89
35.89 34.47 31.47 27.26 24.49 28.59 31.90 36.98 37.04 33.87 33.30 38.31 38.68 39.19 39.85 41.38 41.33 41.03 44.57 44.21 44.18 44.73 45.62 45.98 46.89 47.74 48.28 53.43 56.92 59.11 59.92 59.92 63.90 64.02 63.83 63.87 63.93 62.87 62.19 60.86 60.04 59.11 58.97 58.30
35.66 36.97 33.39 29.21 24.74 16.90 28.54 39.62 41.51 37.78 30.08 39.21 39.77 38.42 38.59 39.98 35.05 38.73 43.31 44.93 44.93 45.53 46.25 45.48 46.56 47.67 47.01 49.41 55.60 57.03 58.77 59.33 58.69 63.74 63.63 63.78 63.79 62.35 61.19 60.41 59.42 58.59 59.97 59.17
33.72 33.57 29.52 29.09 27.02 28.56 36.22 40.90 42.14 30.69 29.47 39.64 40.18 40.50 39.50 38.36 40.07 43.21 44.42 44.15 45.05 45.49 45.47 46.06 46.21 46.10 47.43 50.04 55.07 56.85 58.40 58.60 59.61 63.97 63.89 63.39 62.62 61.25 60.80 59.79 59.99 58.93 59.11 58.25
26.99 29.78 28.33 30.73 28.14 24.37 42.06 39.93 33.40 36.54 37.98 42.09 43.27 42.72 41.71 42.38 42.72 43.08 43.61 43.80 44.24 44.53 45.38 46.10 45.53 46.11 48.41 49.99 56.61 57.54 57.38 58.84 60.29 60.92 62.54 61.08 60.72 61.40 60.83 59.53 60.55 60.39 59.33 58.13
26.18 31.07 31.45 32.23 29.02 37.35 41.15 40.40 42.14 42.55 43.06 43.32 42.17 42.90 43.01 42.35 42.17 42.82 42.68 43.06 43.87 44.30 45.11 46.21 46.08 46.97 48.35 50.86 56.69 57.68 57.89 59.33 59.58 61.44 61.12 60.67 60.78 60.59 60.27 59.59 59.19 58.79 59.07 58.36
34.64 36.64 30.98 31.45 35.13 37.24 39.37 41.96 44.35 44.75 44.17 44.96 44.47 42.96 43.39 42.10 42.61 42.69 42.66 43.34 43.64 43.72 44.18 45.55 46.16 46.44 47.47 51.23 56.84 58.99 60.39 59.63 60.51 60.91 60.93 60.62 60.13 59.73 60.22 60.45 60.15 59.07 58.44 58.50
34.20 34.76 32.04 32.36 36.37 38.75 40.99 42.83 44.70 44.86 45.10 44.38 44.56 43.89 43.46 43.02 43.05 42.77 43.58 43.91 43.92 44.01 44.12 44.76 46.15 46.58 48.33 51.40 57.06 59.64 59.83 61.50 60.40 60.95 60.82 60.03 59.74 59.92 56.77 51.67 55.26 59.18 58.09 57.83
35.14 33.43 32.27 31.98 38.25 38.45 38.76 43.34 44.53 43.41 43.84 43.40 42.97 42.01 42.54 42.61 42.95 44.91 43.80 44.11 43.92 43.79 43.87 44.65 46.56 47.81 49.29 53.62 55.74 58.29 58.61 60.19 61.88 61.12 60.75 60.42 59.05 57.60 55.21 54.07 50.98 40.91 41.02 43.31
MSLP
1010.19 1010.83 1011.30 1011.39 1011.58 1011.54 1011.71 1011.56 1011.13 1010.44 1009.52 1008.91 1007.89 1006.40 1006.14 1005.84 1005.50 1005.23 1004.85 1004.36 1003.80 1002.56 1001.02 1002.17 1001.98 1001.63 1001.94 1001.62 1001.25 1000.68 1001.19 1001.32 1001.85 1001.93 1002.64 1002.98 1003.07 1003.39 1003.74 1003.71 1003.67 1004.10 1004.71 1005.10
1010.90 1011.10 1010.73 1010.86 1010.89 1011.20 1011.38 1011.40 1011.02 1010.41 1009.95 1009.60 1008.66 1006.78 1006.44 1005.88 1005.38 1005.19 1005.09 1004.70 1004.11 1003.67 1002.50 1000.22 1001.52 1001.75 1001.47 1001.62 1001.67 1001.17 1000.76 1000.44 1000.84 1001.39 1001.65 1001.27 1001.31 1002.07 1002.27 1002.69 1003.06 1003.50 1003.86 1004.32
1011.12 1010.71 1010.46 1010.64 1010.63 1010.90 1011.15 1011.30 1011.09 1011.00 1010.39 1009.83 1009.25 1006.65 1006.54 1005.80 1005.38 1005.11 1005.00 1004.77 1004.54 1004.16 1003.47 1002.63 1001.85 1001.41 1001.06 1000.71 1001.29 1001.07 1000.50 1000.00 999.57 1000.01 1001.31 1001.82 1001.58 1001.87 1002.27 1002.45 1002.49 1002.60 1003.04 1003.56
1010.84 1010.43 1010.44 1010.50 1010.70 1011.00 1011.15 1011.01 1011.10 1011.14 1011.19 1011.18 1010.16 1007.03 1006.58 1006.28 1005.79 1005.43 1005.21 1005.05 1004.59 1004.09 1003.66 1003.25 1002.49 1001.49 1000.94 1000.46 1000.09 1000.10 1000.10 999.49 999.08 999.07 1000.07 1000.95 1000.55 1000.81 1000.96 1001.07 1001.48 1002.14 1002.62 1002.91
1010.48 1010.33 1010.28 1010.41 1010.42 1010.75 1010.93 1010.89 1011.24 1011.50 1011.69 1011.59 1011.05 1010.22 1005.84 1005.92 1005.99 1005.80 1005.30 1005.19 1005.15 1004.83 1004.27 1003.68 1003.04 1001.98 1000.97 1000.07 999.65 999.15 998.97 998.71 998.49 998.56 998.73 999.72 1000.29 1000.65 1000.86 1001.28 1001.67 1002.28 1002.34 1002.66
1010.38 1010.03 1009.94 1009.88 1010.07 1010.41 1010.65 1011.31 1011.81 1012.05 1012.48 1012.22 1011.02 1010.27 1005.05 1006.02 1005.75 1005.75 1005.63 1005.52 1005.42 1004.88 1003.97 1003.19 1002.52 1001.89 1000.80 1000.06 999.21 998.74 998.40 998.18 998.04 998.04 998.04 998.36 998.97 999.91 1000.73 1001.27 1001.61 1002.15 1002.30 1002.35
1010.88 1010.40 1010.07 1010.11 1010.50 1010.72 1011.42 1012.29 1013.24 1013.45 1013.39 1012.52 1011.16 1010.58 1006.72 1006.26 1005.85 1005.72 1005.87 1005.63 1005.14 1004.72 1004.24 1003.12 1002.08 1001.47 1000.57 999.75 998.90 998.33 997.93 997.26 997.21 997.21 997.39 997.79 998.07 998.74 999.74 1000.33 1000.76 1001.54 1001.88 1002.04
1011.77 1011.32 1010.59 1010.57 1010.85 1011.38 1011.79 1012.78 1014.00 1014.08 1013.99 1012.92 1011.57 1009.99 1006.81 1005.94 1005.70 1005.60 1005.71 1005.50 1005.07 1004.73 1004.16 1003.44 1002.23 1001.37 1000.25 999.23 998.25 997.49 997.03 996.49 996.60 996.62 996.63 996.90 997.42 998.05 998.99 999.52 1000.12 1000.55 1000.88 1001.13
1012.69 1011.91 1011.00 1010.77 1010.87 1011.49 1011.85 1012.62 1013.01 1013.92 1013.93 1013.41 1011.50 1009.15 1007.29 1005.73 1005.68 1005.47 1005.34 1005.21 1004.84 1004.34 1003.60 1002.87 1002.17 1001.01 999.88 998.80 997.67 996.79 995.69 995.35 995.32 995.36 995.95 996.17 996.57 997.36 998.25 998.76 999.61 1000.01 1000.45 1000.78
1012.70 1012.61 1011.64 1011.30 1011.17 1011.09 1011.47 1012.15 1013.32 1014.44 1014.35 1013.22 1011.14 1009.37 1007.49 1006.20 1005.57 1005.74 1005.22 1004.92 1004.51 1003.94 1003.16 1002.08 1001.32 1000.38 999.15 998.07 996.67 995.44 994.34 993.81 993.90 994.43 995.05 995.29 995.64 996.98 997.59 998.26 999.15 999.61 1000.15 1000.50
1012.82 1013.40 1012.64 1012.01 1011.60 1011.45 1011.84 1012.33 1013.20 1014.03 1013.96 1013.05 1011.21 1008.53 1006.50 1006.10 1005.86 1005.36 1005.08 1004.77 1004.64 1003.69 1002.65 1001.52 1000.40 999.76 998.61 997.16 995.93 994.02 992.64 992.38 992.76 993.40 994.25 994.34 995.55 996.40 996.98 997.82 998.55 999.09 999.66 999.96
1012.93 1013.47 1013.38 1012.30 1011.02 1011.25 1011.61 1012.18 1012.88 1013.62 1013.41 1012.56 1011.13 1007.35 1006.06 1005.70 1005.25 1004.99 1004.77 1004.60 1004.04 1003.21 1002.38 1001.12 1000.00 999.06 997.47 995.90 994.50 992.85 991.99 991.81 991.88 992.47 993.34 994.30 995.10 995.89 996.74 997.52 998.01 998.66 999.10 999.66
1012.95 1013.57 1013.68 1012.31 1011.62 1011.32 1011.36 1011.89 1012.24 1012.59 1012.76 1011.78 1010.93 1006.87 1005.54 1005.54 1005.18 1004.57 1004.53 1004.11 1003.88 1002.87 1001.53 1000.11 999.51 997.89 995.75 995.36 993.49 992.05 991.25 991.20 991.36 992.08 993.14 994.01 994.75 995.49 996.45 997.14 997.56 998.22 998.92 999.51
1012.60 1012.95 1013.44 1012.92 1012.08 1011.92 1011.54 1011.31 1011.42 1011.73 1011.35 1010.13 1008.74 1006.41 1005.48 1005.17 1004.81 1003.97 1003.87 1003.69 1003.46 1002.83 1001.18 1000.24 998.47 996.81 996.66 995.19 993.05 991.69 990.88 991.11 991.30 991.54 992.67 993.51 994.34 995.22 995.92 996.56 997.35 998.03 998.52 999.13
1012.30 1012.68 1012.86 1012.41 1011.91 1011.38 1010.67 1010.07 1009.67 1009.77 1009.22 1009.14 1007.48 1006.52 1005.01 1004.73 1004.24 1003.75 1003.49 1003.23 1002.79 1001.95 1000.72 1000.35 998.71 997.66 997.03 994.72 993.11 992.21 990.89 991.00 991.19 991.70 992.23 993.20 993.95 994.90 995.92 996.69 997.37 997.57 998.35 999.16
1012.41 1012.51 1012.48 1012.02 1011.51 1010.60 1009.53 1008.38 1007.81 1007.49 1007.33 1007.11 1006.36 1005.33 1004.49 1004.32 1003.93 1003.68 1003.24 1002.87 1002.47 1002.07 1000.71 1000.82 1000.45 997.97 995.57 994.88 993.97 993.00 991.76 991.45 991.76 992.09 992.60 993.15 994.28 995.01 995.72 996.50 997.05 997.85 998.59 999.42
1012.59 1012.67 1012.79 1011.25 1010.74 1010.15 1008.47 1006.76 1006.36 1005.88 1005.59 1005.58 1005.38 1004.57 1004.41 1004.32 1003.84 1003.87 1003.26 1002.60 1002.39 1001.97 1001.00 1000.43 1000.02 997.68 996.01 995.10 994.45 993.68 992.44 991.80 991.83 992.30 992.90 993.43 993.95 994.87 995.52 996.09 997.20 998.01 998.85 999.63
1011.79 1012.33 1012.40 1011.31 1010.90 1009.70 1006.80 1005.89 1005.60 1005.41 1004.91 1004.85 1004.59 1004.31 1004.25 1004.16 1003.60 1003.77 1003.04 1002.32 1001.89 1001.48 1000.85 1000.05 999.02 997.58 996.77 995.66 994.77 993.95 992.83 992.32 992.54 992.55 992.88 993.50 993.93 994.67 995.31 996.31 997.42 998.43 999.19 999.98
1010.66 1011.46 1011.47 1011.17 1010.70 1008.67 1006.93 1005.92 1005.52 1005.55 1004.55 1004.31 1004.17 1003.73 1003.72 1003.63 1002.90 1002.61 1002.20 1002.03 1001.83 1001.28 1000.54 1000.12 999.61 998.51 997.49 996.25 994.99 994.23 993.56 992.76 993.06 993.18 993.12 993.47 993.81 994.61 995.66 996.51 997.95 998.77 999.57 1000.31
1010.21 1010.73 1011.10 1010.78 1010.37 1008.81 1006.92 1006.01 1005.86 1006.16 1005.24 1003.64 1003.80 1003.48 1003.19 1003.56 1002.86 1001.91 1001.53 1001.53 1001.08 1000.70 1000.45 999.94 999.00 998.49 997.44 996.24 995.37 994.72 993.99 993.31 993.74 993.60 993.36 993.65 993.76 994.93 995.82 996.97 997.97 998.95 999.67 1000.37
1010.29 1010.58 1010.55 1010.27 1009.57 1008.01 1006.24 1006.10 1006.24 1006.50 1004.75 1003.71 1003.60 1003.43 1003.02 1003.07 1002.77 1001.32 1001.19 1000.53 1000.65 1000.48 1000.22 999.49 998.18 998.05 997.52 996.33 994.72 993.83 993.68 993.40 993.77 993.78 993.47 993.75 994.26 995.01 996.14 997.29 998.20 999.13 999.94 1000.72
1010.00 1010.13 1010.16 1009.61 1008.75 1007.38 1005.98 1006.50 1006.31 1004.72 1004.03 1003.87 1003.39 1002.88 1002.76 1001.90 1001.49 1001.34 1000.92 1000.48 999.90 999.69 999.55 999.51 998.76 998.03 997.02 995.98 995.01 994.28 993.31 993.00 993.84 994.49 992.76 993.76 994.64 995.50 996.66 997.50 998.53 999.29 1000.11 1001.02
1009.76 1009.62 1009.71 1009.37 1007.28 1006.27 1005.80 1005.27 1004.46 1004.13 1003.58 1003.17 1002.99 1002.37 1002.16 1001.81 1001.20 1000.78 1000.48 1000.02 999.74 999.78 999.49 999.16 998.44 997.79 996.91 996.12 994.84 994.24 994.18 993.96 994.36 991.47 993.74 993.72 994.88 996.07 996.91 997.82 998.97 999.89 1000.49 1001.32
1009.55 1009.00 1008.97 1008.30 1006.22 1005.86 1005.37 1004.55 1004.10 1003.67 1003.06 1002.43 1001.79 1001.46 1001.49 1001.15 1000.77 1000.29 1000.10 999.69 999.36 999.45 999.40 999.31 998.46 997.50 996.68 995.78 995.30 994.57 993.72 993.86 994.40 994.31 994.08 994.37 995.57 996.79 997.46 998.26 999.36 1000.16 1000.90 1001.57
1009.66 1009.09 1007.97 1007.08 1006.02 1005.34 1004.40 1003.94 1003.36 1002.90 1002.40 1001.88 1001.36 1001.10 1000.90 1000.76 1000.34 999.98 998.98 998.81 998.91 998.78 998.98 998.77 997.93 997.10 996.20 995.40 995.17 994.37 993.76 994.82 994.36 994.31 994.32 995.26 996.25 997.23 998.22 999.42 1000.25 1000.55 1000.93 1001.16
1008.48 1007.95 1007.77 1006.49 1005.82 1005.24 1004.07 1003.10 1002.49 1002.24 1001.93 1001.58 1001.39 1000.94 1000.71 1000.77 999.97 999.32 998.38 998.15 998.36 998.19 998.09 997.74 997.28 996.43 995.44 994.51 994.24 993.97 994.42 994.41 994.17 994.51 994.86 995.60 996.59 997.85 998.86 999.80 1000.83 1001.28 1001.49 1001.69
Wind_Speed
3 5 2 5 8 6 2 3 5 6 7 7 11 18 14 7 5 7 8 10 9 17 14 5 7 8 6 8 10 9 8 9 8 8 7 5 9 8 6 7 10 10 9 10
6 2 6 4 4 4 3 2 4 6 6 10 9 23 18 12 6 7 7 8 10 9 13 22 11 7 8 7 11 10 10 10 7 6 8 5 8 4 7 6 6 8 8 8
3 7 6 3 4 5 2 3 4 7 7 8 8 23 10 4 3 5 6 6 6 8 11 13 15 13 10 10 8 12 14 14 13 15 3 1 3 2 3 3 4 6 7 9
4 4 1 6 4 3 3 4 5 9 6 3 3 16 6 3 8 6 7 7 10 11 10 10 17 17 15 14 13 9 12 13 13 15 9 9 10 12 7 4 3 5 8 9
10 4 5 3 4 5 8 6 6 6 6 3 4 6 3 7 7 9 8 8 7 7 10 12 13 16 19 16 13 9 11 11 13 14 17 12 7 5 2 2 6 5 5 8
7 4 4 7 5 6 3 4 4 4 2 2 9 8 17 4 4 4 4 5 6 10 14 14 13 13 15 16 15 11 12 14 14 12 16 18 19 11 5 5 5 4 4 6
4 2 1 2 1 5 6 6 5 5 3 5 2 3 15 12 10 5 3 8 9 9 11 15 13 13 16 17 18 10 10 15 15 15 16 18 17 16 13 9 6 6 4 4
1 6 0 2 3 5 5 7 6 6 5 10 10 7 9 5 5 4 5 9 10 11 12 13 15 13 17 17 19 18 14 16 15 17 18 18 17 9 7 8 5 6 6 6
1 5 3 8 2 4 4 4 4 2 2 1 7 9 10 9 7 5 8 8 10 14 17 17 14 19 17 17 20 21 17 16 15 18 17 15 12 9 10 9 7 6 6 6
3 6 8 4 1 6 6 3 3 3 3 6 6 7 10 9 11 7 12 11 13 17 19 20 17 16 15 17 20 24 22 20 18 18 17 13 13 12 8 8 9 9 7 8
2 4 5 3 4 6 3 2 1 3 4 4 5 6 7 8 8 12 10 9 13 19 22 21 21 17 14 17 19 20 15 18 14 10 9 10 10 10 10 9 9 10 10 10
3 3 4 9 14 7 6 6 4 4 5 5 3 14 7 9 9 10 9 10 14 18 23 23 20 16 17 20 20 15 9 12 11 10 11 8 9 10 9 9 10 11 11 11
3 1 4 6 3 4 2 4 5 2 2 8 7 12 5 7 12 11 8 8 12 23 29 19 12 12 19 23 20 14 7 14 11 11 9 9 10 11 11 10 10 10 11 11
5 6 8 10 10 4 12 15 11 7 6 8 13 24 21 18 13 13 7 7 12 21 13 14 19 19 17 20 14 12 7 6 8 11 12 11 11 11 10 10 11 12 11 12
9 7 7 9 14 17 20 21 21 19 18 14 19 21 21 12 11 12 6 7 12 23 14 18 24 25 19 17 13 15 4 2 6 10 11 11 11 10 10 11 11 11 12 10
3 4 3 12 18 20 20 18 19 20 20 19 18 20 9 5 5 5 9 12 12 15 19 13 20 19 18 17 9 8 7 5 6 8 11 12 12 12 12 11 12 12 11 10
4 2 5 10 3 10 11 8 6 5 9 9 9 12 3 6 8 7 14 13 8 13 17 18 19 19 19 17 13 9 5 1 9 11 10 11 12 13 13 14 14 12 12 11
8 6 4 4 3 5 6 4 4 7 8 9 7 8 6 7 9 9 12 3 10 12 16 17 15 15 19 16 12 12 5 2 6 10 12 13 14 14 13 13 12 9 7 10
14 9 3 3 4 7 9 5 2 2 15 4 7 7 7 9 9 7 3 3 10 14 14 13 13 14 15 15 12 10 7 7 2 9 12 13 14 15 13 13 12 8 9 7
8 9 4 3 4 6 7 3 3 3 9 5 6 10 12 10 14 9 6 10 13 13 11 12 14 12 9 14 12 8 2 4 9 8 12 13 15 15 13 11 11 5 8 7
3 3 9 8 6 8 6 4 5 2 9 3 4 13 15 15 13 17 13 14 12 12 11 12 14 11 11 12 12 11 2 3 2 5 12 13 14 15 12 10 9 7 8 8
6 4 4 3 6 7 4 4 6 9 5 5 11 18 20 21 19 13 10 13 17 15 13 11 11 10 11 12 9 3 5 3 5 13 13 13 11 11 9 12 8 10 10 10
3 5 2 6 6 6 5 13 12 6 16 15 13 15 16 18 17 13 10 16 15 12 12 13 12 12 11 9 10 5 2 4 8 10 11 14 12 11 11 12 10 8 8 8
4 2 4 6 6 10 8 14 10 14 12 16 16 13 14 16 12 13 14 17 12 10 13 12 12 12 12 8 6 9 6 6 14 7 10 11 11 9 9 8 8 8 7 8
8 6 5 7 10 10 12 13 15 17 18 18 16 14 16 13 13 17 19 16 15 15 11 11 11 10 12 8 7 1 4 4 5 6 10 9 9 10 9 7 4 6 4 8
4 6 3 14 15 15 18 19 20 19 18 11 9 14 16 17 20 16 14 16 16 17 12 11 10 11 10 7 9 4 3 7 2 6 10 10 9 9 7 7 5 15 9 4
Wind_Direction
0 70 216 234 204 236 260 272 262 275 288 324 300 300 305 276 256 281 287 290 291 302 309 323 307 302 216 266 278 222 190 213 200 193 196 200 207 210 214 211 196 186 185 183
15 297 239 272 274 188 174 186 277 270 343 311 301 290 294 291 257 235 255 281 291 300 315 321 329 317 306 235 227 252 230 215 184 209 229 217 197 197 216 195 185 196 180 172
155 252 324 324 315 356 357 262 258 275 294 253 279 278 264 277 279 271 269 268 290 283 294 300 309 312 306 302 235 229 226 226 209 199 145 55 60 85 153 188 195 206 180 178
227 264 301 311 268 116 312 253 284 306 338 296 46 288 187 216 260 279 288 268 265 277 304 311 311 304 300 292 295 232 220 217 213 195 185 210 207 206 216 188 129 183 194 179
238 209 281 262 226 176 235 248 264 269 268 301 207 266 151 315 283 260 273 298 330 328 315 307 306 305 300 294 285 277 249 233 224 204 196 199 197 229 136 138 166 189 186 182
252 237 190 209 221 205 289 315 317 330 75 260 216 194 285 219 257 320 281 306 308 306 303 298 294 298 298 297 280 268 259 241 224 208 206 199 206 190 160 176 180 182 177 174
327 248 345 103 325 352 55 51 324 330 335 228 297 301 261 298 296 236 258 277 278 270 278 288 295 302 302 296 292 261 245 245 231 213 208 211 210 201 196 185 173 165 154 169
274 318 182 108 181 219 241 167 166 259 254 279 293 236 262 235 213 228 238 263 274 286 287 285 290 288 290 286 291 277 244 229 222 214 212 208 207 192 186 176 168 183 184 172
270 271 299 298 304 126 262 219 207 205 281 7 234 271 299 272 247 292 292 295 298 305 308 301 296 294 289 285 289 279 252 229 215 209 210 201 184 160 183 178 164 164 167 165
218 284 241 260 23 272 174 191 277 3 287 265 274 267 246 277 280 308 298 299 311 311 305 301 294 287 285 291 287 283 251 231 214 203 201 193 179 188 163 149 170 172 164 158
163 179 284 22 217 206 309 304 181 158 179 243 282 247 224 265 269 267 272 297 302 312 306 300 297 287 284 298 289 275 243 216 208 186 186 167 168 159 150 163 172 173 162 160
200 159 272 246 273 235 224 235 178 137 264 241 255 273 250 241 253 271 270 285 316 328 311 301 294 275 301 311 296 283 225 203 198 180 164 159 141 145 157 173 174 160 165 165
186 249 304 313 358 1 122 188 197 187 289 229 254 265 233 262 285 266 254 274 320 338 308 298 280 298 338 312 301 278 217 218 189 165 154 151 152 156 174 170 158 159 159 158
265 191 217 247 260 229 281 269 250 213 239 253 241 274 288 288 281 282 244 269 309 332 301 323 331 336 320 305 323 302 245 182 169 157 158 154 158 166 162 150 153 161 156 146
161 217 206 243 264 273 271 273 271 255 246 246 270 269 278 284 292 300 283 289 318 320 346 352 343 322 309 322 331 336 241 158 156 149 146 154 146 140 142 149 152 139 146 142
176 261 254 279 273 266 278 273 262 255 256 260 262 263 255 283 302 308 299 313 305 305 331 344 280 295 337 327 307 316 358 144 141 145 143 136 140 144 143 142 135 137 134 142
178 189 299 276 309 315 278 245 248 241 231 234 251 261 279 296 297 322 313 306 316 334 322 311 302 319 330 324 328 306 321 232 144 138 139 140 138 142 144 133 140 140 137 133
205 196 209 279 27 242 244 237 257 263 248 242 280 277 248 260 277 304 280 310 331 325 302 309 319 327 322 321 331 319 348 135 152 143 145 150 144 139 128 129 121 118 130 138
207 200 236 226 213 287 289 316 202 353 294 219 232 260 253 294 304 282 215 324 313 309 303 305 305 307 308 313 331 347 341 40 164 160 154 153 145 132 135 129 134 132 129 126
164 206 211 172 243 237 234 247 49 65 278 239 231 269 283 340 304 297 308 320 311 317 308 300 308 314 302 307 306 327 297 44 359 188 163 160 144 139 132 134 130 124 129 121
150 183 232 250 264 278 252 148 81 240 254 309 291 292 284 287 268 294 307 303 307 307 309 311 315 317 303 308 317 314 254 173 330 256 159 152 144 132 131 125 127 124 117 112
180 198 210 211 230 265 144 79 206 253 265 269 272 274 279 283 285 285 287 300 315 314 320 311 307 318 313 312 325 292 291 84 277 311 163 130 132 129 129 123 124 124 124 121
306 193 241 213 230 239 227 264 276 249 274 278 269 260 262 271 275 285 295 302 306 310 305 318 316 315 312 312 346 357 354 246 283 262 149 125 121 126 126 125 124 121 127 128
295 262 245 331 267 269 283 285 298 288 260 274 268 255 270 269 277 283 290 291 291 303 302 311 308 307 300 319 332 305 169 245 288 181 129 117 120 121 125 124 132 134 137 138
251 322 259 254 281 304 270 295 287 288 290 286 276 272 268 270 275 278 283 285 290 297 303 297 294 285 291 314 326 291 25 227 324 176 122 119 124 124 104 72 89 140 122 151
207 220 247 289 307 288 280 291 291 294 291 296 295 291 281 277 275 277 283 286 292 289 286 279 282 279 290 299 332 279 166 313 3 153 137 135 126 130 124 125 101 47 47 76